Find Starlink 3525

NORAD ID: 51733 Int'l Des: 2022-016 Owner: SPXS Country: US Constellation: starlink operational
LEOCIRCULAR

現在のビュー

3D地球を読み込み中...

About Starlink 3525

Starlink 3525 (NORAD 51733) is a starlink constellation satellite (v1.5) launched Feb 21, 2022 by SPXS of US. It operates in LEO, CIRCULAR orbit with a mass of 297.00 kg.

次回通過

Passes for default location (London). Set your location on the main map for personalized predictions.

高度履歴

Loading altitude history...

軌道要素

1 51733U 22016V 26264.09764799 .00000144 00000-0 15397-4 0 9999
2 51733 53.1580 146.7021 0001191 92.8228 267.2911 15.34397211253270
Epoch: Sep 21, 2026 • Age: 12 hours

現在のステータス

高度 482.1 km
遠地点 / 近地点 N/A
速度 7.62 km/s
衛星直下点 -53.28°S, 165.5°W
打ち上げ日 Feb 21, 2022
運用期間 4.5 years
タイプ internet

技術仕様

分類 Payload
質量 297.00 kg
乾燥質量 275.00 kg
長さ 0.20 m
スパン 9.00 m
形状 ? Box + pan
製造者 SPXS
バスタイプ Starlink
フェーズステータス In Orbit
所有者/国 SPXS/US

Most Searched